Flag for Netherlands Weather past 2 weeks in The Hague, Netherlands

Now
61 °F

Mostly cloudy.


Feels Like: 61 °F
Forecast: 54 / 62 °F
Wind: 17 mph from Northwest

Location: Rotterdam Zestienhoven Airport

Current Time: Sep 22, 2014 at 2:43:27 PM

Latest Report: Sep 22, 2014 at 1:55 PM


Visibility: N/A

Pressure: 30.15 "Hg

Humidity: 63%

Dew point: 48 °F

Location of The HagueLocation

Historic Weather in The Hague — Graph

°F

The Hague temperature yesterday

Maximum temperature yesterday: 64 °F (at 12:25 PM)
Minimum temperature yesterday: 57 °F (at 7:55 PM)
Average temperature yesterday: 61 °F

Past Weeks' High & Low Weather Summary

 TemperatureHumidityPressure
High79 °F (Sep 18, 1:55 PM)100% (Sep 8, 12:25 AM)30.30 "Hg (Sep 8, 12:25 AM)
Low46 °F (Sep 11, 3:25 AM)51% (Sep 17, 2:55 PM)29.80 "Hg (Sep 18, 6:25 AM)
Average62 °F82%30.05 "Hg
* Reported Sep 7 1:25 PM — Sep 22 1:25 PM, The Hague, Weather by CustomWeather, © 2014

Note: Actual official high and low records may vary slightly from our data, if they occured in-between our weather recording intervals... More about our weather records

Advertising

The Hague weather history for previous 24 hours

 ConditionsComfort  
Time TempWeatherWind HumidityBarometerVisibility
1:25 PM
Sep 22
63 °FScattered clouds.15 mph64%30.15 "HgN/A
12:55 PM63 °FPassing clouds.16 mph59%30.15 "HgN/A
12:25 PM59 °FPassing clouds.15 mph68%30.15 "HgN/A
11:55 AM61 °FScattered clouds.16 mph63%30.15 "HgN/A
11:25 AM59 °FClear.16 mph59%30.15 "HgN/A
10:55 AM59 °FClear.14 mph63%30.15 "HgN/A
10:25 AM59 °FPassing clouds.12 mph68%30.15 "HgN/A
9:55 AM59 °FClear.15 mph68%30.15 "HgN/A
9:25 AM57 °FClear.10 mph77%30.15 "HgN/A
8:55 AM57 °FPartly sunny.9 mph77%30.15 "HgN/A
8:25 AM57 °FLight rain. Mostly cloudy.12 mph77%30.15 "Hg5 mi
7:55 AM59 °FClear.12 mph59%30.15 "HgN/A
7:25 AM59 °FPartly cloudy.15 mph63%30.15 "HgN/A
6:55 AM57 °FPassing clouds.9 mph67%30.15 "HgN/A
6:25 AM57 °FPassing clouds.8 mph77%30.15 "Hg5 mi
5:55 AM57 °FPartly cloudy.7 mph67%30.15 "HgN/A
5:25 AM57 °FOvercast.9 mph59%30.15 "HgN/A
4:55 AM59 °FOvercast.12 mph55%30.15 "HgN/A
4:25 AM59 °FOvercast.10 mph59%30.15 "HgN/A
3:55 AM57 °FPassing clouds.9 mph63%30.15 "HgN/A
3:25 AM57 °FPassing clouds.8 mph67%30.18 "Hg6 mi
2:55 AM57 °FClear.9 mph67%30.18 "Hg6 mi
2:25 AM59 °FMostly cloudy.9 mph63%30.18 "HgN/A
1:55 AM55 °FClear.9 mph72%30.18 "HgN/A
1:25 AM59 °FClear.9 mph68%30.18 "HgN/A
12:55 AM59 °FClear.8 mph63%30.18 "HgN/A
12:25 AM59 °FPassing clouds.9 mph68%30.18 "HgN/A
11:55 PM
Sep 21
59 °FPassing clouds.10 mph72%30.15 "HgN/A
11:25 PM59 °FPassing clouds.10 mph72%30.15 "HgN/A
10:55 PM59 °FPassing clouds.9 mph77%30.15 "HgN/A
10:25 PM57 °FPassing clouds.9 mph82%30.15 "HgN/A
9:55 PM59 °FPassing clouds.8 mph77%30.15 "HgN/A
9:25 PM59 °FPassing clouds.9 mph77%30.15 "HgN/A
8:55 PM57 °FLight rain. Passing clouds.6 mph88%30.15 "HgN/A
8:25 PM57 °FPassing clouds.5 mph88%30.12 "HgN/A
7:55 PM57 °FLight rain. Broken clouds.12 mph88%30.12 "HgN/A
7:25 PM59 °FCool.12 mph77%30.12 "HgN/A
6:55 PM61 °FPartly sunny.15 mph72%30.12 "HgN/A
6:25 PM61 °FScattered clouds.13 mph68%30.12 "HgN/A
5:55 PM61 °FPassing clouds.15 mph68%30.12 "Hg6 mi
5:25 PM63 °FScattered clouds.17 mph68%30.12 "Hg6 mi
4:55 PM61 °FLight rain. Broken clouds.16 mph72%30.12 "HgN/A
4:25 PM63 °FScattered clouds.16 mph64%30.12 "HgN/A
3:55 PM64 °FPassing clouds.14 mph60%30.12 "HgN/A
3:25 PM64 °FScattered clouds.16 mph64%30.09 "HgN/A
2:55 PM63 °FScattered clouds.17 mph64%30.09 "HgN/A
2:25 PM64 °FPassing clouds.15 mph60%30.09 "HgN/A
Weather by CustomWeather, © 2014

See weather overviewHow to use our weather pages